This is the latest recevied weather packets stored in our database for station/object N0HOT. If no packets are shown the sender has not sent any weather packets the latest 10 day(s).
| Time | Temp. | Humidity | Pressure | Rain* | Wind** | Luminosity | Snow |
|---|---|---|---|---|---|---|---|
| 1777916049 | 24.44° C | 28% | 997 hPa | 0 mm | - | 874 W/m² | - |
| 1777915747 | 24.44° C | 29% | 997.3 hPa | 0 mm | - | 909 W/m² | - |
| 1777915443 | 24.44° C | 30% | 997 hPa | 0 mm | - | 935 W/m² | - |
| 1777915139 | 24.44° C | 28% | 997 hPa | 0 mm | - | 955 W/m² | - |
| 1777914837 | 24.44° C | 28% | 997 hPa | 0 mm | - | 928 W/m² | - |
| 1777914534 | 24.44° C | 29% | 997 hPa | 0 mm | - | 908 W/m² | - |
| 1777914230 | 23.89° C | 28% | 997 hPa | 0 mm | - | 872 W/m² | - |
| 1777913927 | 23.89° C | 29% | 997.3 hPa | 0 mm | - | 902 W/m² | - |
| 1777913623 | 23.89° C | 29% | 997 hPa | 0 mm | - | 849 W/m² | - |
| 1777913320 | 23.89° C | 29% | 997 hPa | 0 mm | - | 778 W/m² | - |
| 1777913017 | 23.89° C | 28% | 997 hPa | 0 mm | - | 864 W/m² | - |
| 1777912712 | 24.44° C | 28% | 997 hPa | 0 mm | - | 1252 W/m² | - |
| 1777912409 | 24.44° C | 27% | 997 hPa | 0 mm | - | 1170 W/m² | - |
| 1777912105 | 24.44° C | 29% | 996.5 hPa | 0 mm | - | 719 W/m² | - |
| 1777911801 | 24.44° C | 26% | 996.5 hPa | 0 mm | - | 627 W/m² | - |
| 1777911498 | 24.44° C | 27% | 997 hPa | 0 mm | - | 678 W/m² | - |
| 1777911195 | 23.89° C | 27% | 997 hPa | 0 mm | - | 750 W/m² | - |
| 1777910892 | 23.89° C | 26% | 997 hPa | 0 mm | - | 796 W/m² | - |
| 1777910589 | 23.89° C | 27% | 997 hPa | 0 mm | - | 783 W/m² | - |
| 1777910286 | 23.89° C | 26% | 997 hPa | 0 mm | - | 817 W/m² | - |
| 1777909983 | 23.89° C | 27% | 997 hPa | 0 mm | - | 752 W/m² | - |
| 1777909680 | 23.89° C | 26% | 996.5 hPa | 0 mm | - | 690 W/m² | - |
| 1777909377 | 23.33° C | 26% | 997 hPa | 0 mm | - | 732 W/m² | - |
| 1777909075 | 23.33° C | 25% | 997 hPa | 0 mm | - | 747 W/m² | - |
| 1777908772 | 22.78° C | 27% | 997 hPa | 0 mm | - | 761 W/m² | - |
* Rain latest hour (hover to see other rain measurements)
** Current wind speed in m/s (hover to see current wind gust speed)